Regional Weather Roundup
Issued by NWS

Home | Current Version | Previous Version | Text Only | Print | Product List | Glossary On
Versions: 1 2 3 4 5 6 7 8 9 10 11 12 13 14 15 16 17 18 19 20 21 22 23 24 25 26 27 28 29 30 31 32 33 34 35 36 37 38 39 40 41 42 43 44 45 46 47 48 49 50
000
ASUS42 KFFC 231610
RWRGA
WEATHER ROUNDUP FOR GEORGIA
NATIONAL WEATHER SERVICE PEACHTREE CITY GA
1200 PM EDT FRI JUN 23 2017

NOTE: "FAIR" INDICATES FEW OR NO CLOUDS BELOW 12,000 FEET WITH NO
SIGNIFICANT WEATHER AND/OR OBSTRUCTIONS TO VISIBILITY.

* = USE WITH CAUTION. THE STATIONS MARKED WITH AN ASTERISK MAY NOT
REPORT WEATHER SUCH AS PRECIPITATION, FOG, OR THUNDER AND ARE NOT
QUALITY CONTROLLED BY NWS.

THE REMARK "TC" DENOTES TEMPERATURE READING IN DEGREES CELSIUS.

GAZ001>058-231700-
NORTH GEORGIA

CITY           SKY/WX    TMP DP  RH WIND       PRES   REMARKS
ATLANTA        CLOUDY    81  70  69 SW14G22   30.02F
ATHENS         SUNNY     85  74  69 S5        30.03S HX  92
CHAMBLEE       CLOUDY    82  69  64 SW16G23   30.02S
PEACHTREE CITY CLOUDY    83  71  67 VRB6      30.02F
ROME           CLOUDY    82  73  74 SW14G20   29.96S
WEST ATLANTA   CLOUDY    82  72  71 S12       30.01S
GAINESVILLE    MOSUNNY   81  70  69 SW7       30.05S
CARTERSVILLE   CLOUDY    82  73  74 VRB7      29.99F


CITY           SKY/WX    TMP DP  RH WIND       PRES   REMARKS
DALTON*        CLOUDY    79  72  78 S9        29.97S
LAWRENCEVILLE* MOSUNNY   82  72  69 SW9G21    30.04R
MARIETTA       CLOUDY    81  71  71 S8        30.02S
KENNESAW*      PTSUNNY   79  72  78 S5        29.98F
CANTON*        CLOUDY    82  72  69 S12       30.03F
$$

GAZ059>098-102>109-231700-
CENTRAL GEORGIA

CITY           SKY/WX    TMP DP  RH WIND       PRES   REMARKS
AUGUSTA-BUSH   SUNNY     91  72  53 SW12      30.01F HX  98
AUGUSTA-DANIEL SUNNY     89  67  47 SW9       30.03F HX  92
COLUMBUS       MOSUNNY   85  73  67 SW13      30.01S HX  91
MACON          MOSUNNY   86  72  62 S13       30.03S HX  92
ROBINS AFB     SUNNY     87  74  66 S13       30.02S HX  94


CITY           SKY/WX    TMP DP  RH WIND       PRES   REMARKS
LAGRANGE*      MOSUNNY   86  76  73 SW12G17   30.01F HX  95
SYLVANIA*      MOSUNNY   87  79  76 SW5       30.05F HX 101
MILLEDGEVILLE* SUNNY     86  77  74 SW3       30.03F HX  97
$$

GAZ099>101-110>166-231700-
SOUTH GEORGIA

CITY           SKY/WX    TMP DP  RH WIND       PRES   REMARKS
SAVANNAH       PTSUNNY   88  74  63 S6        30.04F HX  96
VALDOSTA       PTSUNNY   86  75  69 S5        30.04F HX  95
ALMA           MOSUNNY   87  74  64 SW6       30.05S HX  95
ST SIMONS      CLOUDY    86  77  74 SE12      30.05F HX  97
FT STEWART     MOSUNNY   88  75  66 S6        30.02F HX  97
ALBANY         PTSUNNY   87  75  67 SW7       30.04F HX  96
HUNTER AFB     MOSUNNY   87  76  69 S8        30.02F HX  98
MOODY AFB      PTSUNNY   88  74  61 S3        30.03F HX  96
BRUNSWICK      CLOUDY    86  77  74 SW7       30.06F HX  97


CITY           SKY/WX    TMP DP  RH WIND       PRES   REMARKS
BAINBRIDGE*    MOSUNNY   95  82  66 S8        30.03S HX 119
MOULTRIE*      MOSUNNY   86  73  66 SW8       30.05F HX  93
VIDALIA*       PTSUNNY   88  77  70 S7        30.05S HX 100
WAYCROSS*      MOSUNNY   89  80  75 SW7       30.05S HX 106
DOUGLAS*       PTSUNNY   86  73  66 SW6       30.06F HX  93
$$



USA.gov is the U.S. government's official web portal to all federal, state and local government web resources and services.